Погода в Пустошке

Россия / Псковская область     56°20′15″N   29°22′00″E
темп.,
°C
ветер,
м/с
пор.,
м/с
влажн.,
%
обл.,
%
осадки,
мм/ч
давл.,
гПа
погр.,
м
19 апреля, пн
пн1900:00+6св387429 0.0 1023165
03:00+5всв39785 0.0 1024226
06:00+4всв38855 0.0 1023175
09:00+8всв46665 0.0 1023425
12:00+12всв47495 0.0 10231504
15:00+13в4546100 0.0 10221946
18:00+12в255690 0.0 10221300
21:00+8в257848 0.1 1022126
20 апреля, вт
вт2000:00+8в387899 0.1 1022444
03:00+6всв278099 0.1 1021291
06:00+6всв3779100 0.0 1020371
09:00+5в4686100 0.0 1019720
12:00+5в3579100 0.1 1018813
15:00+6всв4573100 0.3 10171042
18:00+4всв3695100 0.2 1016527
21:00+4всв2590100 0.3 1015837
21 апреля, ср
ср2100:00+4всв2395100 0.2 1012747
03:00+4св1297100 0.4 1010620
06:00+4сз2291100 0.4 1008667
09:00+4сз2493100 0.9 1007669
12:00+5з459097 0.4 1006684
15:00+5з3681100 0.6 1005740
18:00+6з368098 0.4 1005764
21:00+4юз228639 0.5 100540
22 апреля, чт
чт2200:00+3ююз2788100 0.0 1006138
03:00+3ююз3987100 0.0 1006215
06:00+3ююз299342 0.1 1007185
09:00+8юз367495 0.1 1008391
12:00+12ююз35565 0.0 10091494
15:00+14юз4546100 0.1 10091854
18:00+11зюз367182 1.1 1010777
21:00+7з2491100 1.3 101285
23 апреля, пт
пт2300:00+5ююв119378 0.0 101110
03:00+5зсз2393100 0.4 1009151
06:00+3з2697100 7.9 1009317
09:00+4зюз3592100 8.4 1010524
12:00+6юз3572100 0.3 1010994
15:00+8юз3654100 0.6 10091675
18:00+9ююз355193 0.1 10081770
21:00+4ю3793100 0.7 1008620